[[{"header":{"parameterUnit":"m.s-1","parameterCategory":1,"la1":30.2991,"la2":30.254,"lo1":-89.0895,"lo2":-89.0444,"dy":0.0017,"dx":0.0017,"nx":28,"ny":28,"refTime":"2023-06-27T21:00:00:Z","depth":0,"parameterNumber":2,"parameterNumberName":"U-component_of_WINDS"},"data":[0,0,0,0,0,0,0,0,0,0,0,0,0,0,0,0,0,0,0,0,0,0,0,0,0,0,0,0,0,0,0,0,0,0,0,0,0,0,0,0,0,0,0,0,0,0,0,0,0,0,0,0,0,0,0,0,0,0,1.3455,1.3456,0,1.358,1.3581,1.3582,1.3657,1.3657,1.3658,1.3658,1.3779,1.3782,1.3785,0,0,0,0,0,0,0,0,0,0,0,0,0,1.3277,1.328,1.3455,1.3456,1.3458,1.3579,1.3581,1.3583,1.3657,1.3657,1.3658,1.3658,1.3778,1.3781,1.3785,0,0,0,0,0,0,0,0,0,0,0,0,0,1.3373,1.3281,1.3455,1.351,1.3516,1.3579,1.3581,1.3583,1.3657,1.3657,1.3658,1.3658,1.3777,1.3781,1.3785,1.3801,0,0,1.3799,1.38,0,0,0,0,0,0,0,0,1.3367,1.3379,1.35,1.3506,1.3513,1.3603,1.3563,1.3656,1.3657,1.3603,1.3658,1.3659,1.372,1.3729,1.3751,1.3807,1.3812,1.3799,1.3802,1.3803,1.3805,0,0,0,0,0,0,0,1.3361,1.3374,1.3504,1.3502,1.351,1.3527,1.3541,1.3581,1.3656,1.3608,1.3613,1.3628,1.3723,1.3746,1.3754,1.3814,1.3799,1.3803,1.3805,1.3807,1.3891,1.3891,0,0,0,0,0,0,1.3346,1.3368,1.35,1.3508,1.344,1.353,1.3546,1.3574,1.3656,1.367,1.3627,1.3631,1.3739,1.3749,1.3759,1.3784,1.3803,1.3807,1.381,1.3892,1.3891,1.3891,0,0,0,0,0,0,1.3342,1.3357,1.3495,1.344,1.3459,1.3532,1.3563,1.3576,1.3599,1.3671,1.3684,1.3637,1.3739,1.3752,1.3791,1.3789,1.3809,1.3813,1.3892,1.3891,1.3891,1.3833,0,0,0,0,0,0,1.3336,1.3355,1.3363,1.3439,1.3461,1.3526,1.3563,1.3578,1.3607,1.3613,1.3684,1.3696,1.3741,1.3784,1.3795,1.3795,1.3817,1.3892,1.3892,1.3891,1.3835,1.3831,1.3826,0,0,0,0,0,1.333,1.3339,1.3363,1.3378,1.3473,1.3526,1.3538,1.3592,1.3607,1.3614,1.3661,1.3694,1.3788,1.3787,1.3801,1.3802,1.3893,1.3892,1.3891,1.3837,1.3832,1.3827,0,0,0,0,0,0,1.3257,1.335,1.3377,1.3412,1.3461,1.3539,1.355,1.3583,1.3627,1.363,1.3693,1.3708,1.3741,1.3775,1.3773,1.3822,1.3844,1.3846,1.3799,1.3794,1.3789,1.378,1.382,0,0,0,0,0,1.3246,1.3283,1.3362,1.3385,1.3409,1.3475,1.35,1.3538,1.359,1.361,1.3659,1.3707,1.3748,1.3773,1.3814,1.3841,1.3858,1.3849,1.3844,1.384,1.3841,1.3859,1.3856,1.3888,1.3888,1.3888,0,0,1.3222,1.3277,1.3296,1.3372,1.3415,1.3451,1.3492,1.3527,1.3555,1.3615,1.3655,1.3693,1.375,1.3784,1.3801,1.3813,1.3836,1.3839,1.3836,1.3838,1.3858,1.3855,1.3852,1.3887,1.3888,1.3888,0,0,1.3196,1.3242,1.3268,1.331,1.3375,1.3419,1.3425,1.3499,1.3527,1.3569,1.3615,1.3648,1.3716,1.3756,1.3785,1.3778,1.381,1.3789,1.3765,1.3782,1.378,1.3778,1.3776,1.3774,1.379,1.3789,1.3789,0,1.3157,1.3215,1.3275,1.331,1.3342,1.3402,1.3427,1.3465,1.3538,1.3558,1.3572,1.3661,1.3704,1.3748,1.3747,1.3768,1.3777,1.3781,1.3776,1.3774,1.3774,1.3772,1.3771,1.3787,1.3787,1.3787,1.3788,0,1.3164,1.3204,1.3217,1.329,1.3323,1.3353,1.3417,1.3443,1.3478,1.3521,1.3563,1.3618,1.3672,1.3685,1.3718,1.3735,1.3741,1.3764,1.3787,1.3767,1.3766,1.3766,1.3782,1.3784,1.3784,1.3785,0,0,1.3094,1.3203,1.3206,1.3241,1.3318,1.3349,1.3382,1.3437,1.3459,1.3508,1.3537,1.3595,1.3619,1.3651,1.369,1.3705,1.3697,1.3727,1.373,1.372,1.3719,1.3701,1.3699,1.372,1.372,1.372,1.3715,0,1.3079,1.3143,1.32,1.3242,1.328,1.3338,1.3367,1.3417,1.3458,1.3495,1.354,1.3581,1.3608,1.3629,1.3647,1.3694,1.3698,1.3696,1.3746,1.3747,1.3729,1.3699,1.3679,1.3671,1.3715,1.3715,1.3715,0,1.307,1.3121,1.3167,1.3243,1.3261,1.3286,1.3343,1.3378,1.3435,1.3465,1.3503,1.3545,1.3582,1.3602,1.3653,1.365,1.3675,1.3701,1.3702,1.3708,1.3729,1.3703,1.3669,1.3668,1.3715,1.3715,1.3715,0,1.3014,1.3093,1.3132,1.316,1.3249,1.3266,1.3303,1.3362,1.3393,1.3442,1.3462,1.3514,1.3542,1.3581,1.3635,1.3645,1.3681,1.3705,1.3705,1.3704,1.3709,1.3707,1.3678,1.3725,1.3725,1.3725,1.3725,0,1.2991,1.3017,1.3109,1.3132,1.3164,1.3229,1.3258,1.33,1.3353,1.3385,1.3439,1.3467,1.3538,1.3575,1.3618,1.3654,1.3666,1.369,1.3701,1.3685,1.3682,1.3701,1.3703,1.3725,1.3725,1.3725,1.3725,0,1.2933,1.2995,1.3042,1.3124,1.3145,1.3165,1.3234,1.3259,1.3305,1.3346,1.3359,1.343,1.3477,1.3536,1.3601,1.363,1.3662,1.3679,1.3642,1.3649,1.3646,1.3645,1.3626,1.3627,1.3674,1.3673,1.3673,0,1.2913,1.2936,1.3022,1.3049,1.3085,1.3127,1.316,1.3225,1.3257,1.3327,1.3343,1.3395,1.344,1.3512,1.3568,1.3619,1.3637,1.3627,1.3645,1.3629,1.3637,1.3635,1.3637,1.3622,1.3621,1.362,1.362,0,1.2873,1.2904,1.2949,1.3007,1.3045,1.3093,1.3142,1.3161,1.3236,1.3269,1.332,1.3354,1.3423,1.3474,1.3532,1.357,1.3607,1.3615,1.3617,1.36,1.3579,1.3591,1.363,1.3614,1.3615,1.3615,1.3615,1.3616,1.2833,1.2856,1.2921,1.2971,1.3017,1.3063,1.3091,1.3142,1.3186,1.3248,1.3284,1.3333,1.3393,1.3476,1.3512,1.3551,1.3565,1.3569,1.357,1.3569,1.3564,1.3574,1.3562,1.3562,1.3563,1.3563,1.3563,0,1.2795,1.2841,1.2886,1.2956,1.2996,1.3031,1.3089,1.3119,1.3163,1.3216,1.326,1.3319,1.3369,1.3431,1.3486,1.3505,1.3524,1.3517,1.3516,1.3524,1.3549,1.3541,1.3501,1.3501,1.3501,1.3501,1.3501,1.3501,1.278,1.2821,1.286,1.2925,1.297,1.3021,1.3051,1.3094,1.3137,1.3201,1.3244,1.3286,1.3343,1.3403,1.345,1.3468,1.3485,1.3473,1.3494,1.3516,1.3522,1.3527,1.352,1.3476,1.3476,1.3466,1.3466,1.3466]},{"header":{"parameterUnit":"m.s-1","parameterCategory":1,"la1":30.2991,"la2":30.254,"lo1":-89.0895,"lo2":-89.0444,"dy":0.0017,"dx":0.0017,"nx":28,"ny":28,"refTime":"2023-06-27T21:00:00:Z","depth":0,"parameterNumber":3,"parameterNumberName":"V-component_of_WINDS"},"data":[0,0,0,0,0,0,0,0,0,0,0,0,0,0,0,0,0,0,0,0,0,0,0,0,0,0,0,0,0,0,0,0,0,0,0,0,0,0,0,0,0,0,0,0,0,0,0,0,0,0,0,0,0,0,0,0,0,0,-3.6319,-3.632,0,-3.6419,-3.642,-3.6422,-3.638,-3.6378,-3.6375,-3.6373,-3.6473,-3.6477,-3.6482,0,0,0,0,0,0,0,0,0,0,0,0,0,-3.6087,-3.6092,-3.6319,-3.632,-3.6321,-3.6419,-3.642,-3.6422,-3.6381,-3.6378,-3.6375,-3.6372,-3.6471,-3.6477,-3.6483,0,0,0,0,0,0,0,0,0,0,0,0,0,-3.6188,-3.6093,-3.6318,-3.6313,-3.6313,-3.6419,-3.6421,-3.6422,-3.6381,-3.6378,-3.6374,-3.6371,-3.6469,-3.6476,-3.6484,-3.66,0,0,-3.6506,-3.6509,0,0,0,0,0,0,0,0,-3.6182,-3.6196,-3.6312,-3.6313,-3.6314,-3.6384,-3.6375,-3.6482,-3.6382,-3.6355,-3.6373,-3.6369,-3.6446,-3.6455,-3.6481,-3.6605,-3.6609,-3.6507,-3.6511,-3.6514,-3.6516,0,0,0,0,0,0,0,-3.6175,-3.6192,-3.6358,-3.6314,-3.6315,-3.6304,-3.6314,-3.6395,-3.6419,-3.6357,-3.6355,-3.6367,-3.6445,-3.6474,-3.6483,-3.661,-3.6506,-3.6513,-3.6517,-3.652,-3.6834,-3.6838,0,0,0,0,0,0,-3.6168,-3.6186,-3.6355,-3.6361,-3.6238,-3.6311,-3.6322,-3.6365,-3.6418,-3.6423,-3.637,-3.6365,-3.6464,-3.6475,-3.6487,-3.6627,-3.6514,-3.6521,-3.6525,-3.683,-3.6835,-3.6839,0,0,0,0,0,0,-3.6164,-3.6184,-3.6351,-3.6273,-3.6293,-3.6318,-3.6367,-3.6369,-3.6398,-3.6428,-3.6432,-3.6396,-3.6461,-3.6476,-3.6572,-3.663,-3.6524,-3.6531,-3.6825,-3.6832,-3.6837,-3.6908,0,0,0,0,0,0,-3.6157,-3.6182,-3.6228,-3.6274,-3.6298,-3.6437,-3.637,-3.6373,-3.6411,-3.6405,-3.6453,-3.6457,-3.646,-3.6562,-3.658,-3.6638,-3.6536,-3.682,-3.6828,-3.6835,-3.6901,-3.6916,-3.6929,0,0,0,0,0,-3.6149,-3.6243,-3.6231,-3.6251,-3.6356,-3.644,-3.6453,-3.6455,-3.6416,-3.6461,-3.648,-3.6456,-3.662,-3.6572,-3.6592,-3.6653,-3.6817,-3.6826,-3.6835,-3.6895,-3.6913,-3.6929,0,0,0,0,0,0,-3.6202,-3.6249,-3.6236,-3.6348,-3.6391,-3.6433,-3.649,-3.6474,-3.6528,-3.652,-3.6519,-3.653,-3.6629,-3.665,-3.6596,-3.6768,-3.6712,-3.6726,-3.6751,-3.6769,-3.6783,-3.6776,-3.6543,0,0,0,0,0,-3.6227,-3.6293,-3.633,-3.6426,-3.6448,-3.6466,-3.6502,-3.65,-3.6543,-3.6561,-3.6587,-3.6629,-3.669,-3.673,-3.6788,-3.6903,-3.6913,-3.6955,-3.6969,-3.698,-3.6992,-3.7055,-3.7074,-3.6868,-3.6868,-3.6868,0,0,-3.6279,-3.6313,-3.6354,-3.6437,-3.647,-3.6537,-3.6481,-3.6554,-3.6604,-3.6571,-3.6665,-3.6685,-3.6732,-3.6838,-3.6886,-3.6858,-3.7051,-3.6992,-3.7001,-3.7006,-3.7066,-3.7085,-3.7102,-3.6874,-3.6873,-3.6872,0,0,-3.6408,-3.6441,-3.6524,-3.6558,-3.6608,-3.6619,-3.6639,-3.6684,-3.6697,-3.6791,-3.6768,-3.6825,-3.6931,-3.6965,-3.6996,-3.7138,-3.7117,-3.7156,-3.723,-3.729,-3.7307,-3.7321,-3.7372,-3.739,-3.7168,-3.7168,-3.7168,0,-3.6467,-3.6568,-3.6569,-3.6645,-3.6681,-3.6656,-3.674,-3.6772,-3.6838,-3.6864,-3.6832,-3.6964,-3.6993,-3.7107,-3.7142,-3.7168,-3.719,-3.7152,-3.7304,-3.7319,-3.7332,-3.7381,-3.74,-3.7173,-3.7172,-3.7172,-3.7171,0,-3.6637,-3.6708,-3.6769,-3.6835,-3.6878,-3.6958,-3.6969,-3.7013,-3.7006,-3.702,-3.7115,-3.7149,-3.7214,-3.724,-3.7234,-3.7353,-3.7335,-3.7304,-3.7248,-3.7356,-3.7402,-3.742,-3.7179,-3.7177,-3.7176,-3.7175,0,0,-3.6805,-3.6869,-3.6892,-3.6921,-3.6975,-3.7029,-3.7106,-3.717,-3.7208,-3.7253,-3.7318,-3.7408,-3.738,-3.7415,-3.7412,-3.7465,-3.7576,-3.7428,-3.7429,-3.7455,-3.7709,-3.7733,-3.7755,-3.7562,-3.7565,-3.7568,-3.7706,0,-3.6939,-3.7077,-3.7079,-3.7205,-3.727,-3.7246,-3.7313,-3.7352,-3.7367,-3.7423,-3.7438,-3.7503,-3.746,-3.7482,-3.7533,-3.7552,-3.7627,-3.7541,-3.7622,-3.7625,-3.7612,-3.7778,-3.7804,-3.7932,-3.7723,-3.7726,-3.7729,0,-3.7114,-3.7167,-3.73,-3.7344,-3.7371,-3.7432,-3.7491,-3.7545,-3.7588,-3.7595,-3.7635,-3.7624,-3.7701,-3.7642,-3.7749,-3.7691,-3.7723,-3.7737,-3.7742,-3.775,-3.7684,-3.7792,-3.7973,-3.7993,-3.7756,-3.7754,-3.7752,0,-3.7224,-3.7328,-3.7421,-3.7447,-3.75,-3.7543,-3.7567,-3.7607,-3.7645,-3.7696,-3.772,-3.7779,-3.7811,-3.7856,-3.7861,-3.7817,-3.7969,-3.7909,-3.7976,-3.7976,-3.801,-3.8008,-3.82,-3.8029,-3.8029,-3.8029,-3.8028,0,-3.7374,-3.7457,-3.7471,-3.7529,-3.762,-3.762,-3.771,-3.773,-3.7766,-3.7826,-3.7807,-3.7864,-3.7866,-3.7923,-3.7927,-3.8015,-3.8029,-3.8037,-3.8037,-3.8039,-3.8039,-3.8062,-3.8053,-3.8034,-3.8033,-3.8032,-3.8031,0,-3.7513,-3.7526,-3.7626,-3.7668,-3.768,-3.7746,-3.7781,-3.7835,-3.7847,-3.7923,-3.7941,-3.7961,-3.8027,-3.8036,-3.8113,-3.8116,-3.8222,-3.8212,-3.8208,-3.8207,-3.8274,-3.8268,-3.8488,-3.8517,-3.8326,-3.8328,-3.833,0,-3.7609,-3.7672,-3.7721,-3.776,-3.7787,-3.785,-3.7889,-3.7891,-3.7933,-3.7987,-3.8034,-3.8099,-3.8151,-3.8258,-3.8279,-3.8338,-3.833,-3.8403,-3.8338,-3.8339,-3.8332,-3.8329,-3.8335,-3.8415,-3.8418,-3.8419,-3.8421,0,-3.7778,-3.7781,-3.7839,-3.7899,-3.7947,-3.7994,-3.8038,-3.8071,-3.8079,-3.8126,-3.8194,-3.8235,-3.8314,-3.8379,-3.8437,-3.846,-3.8442,-3.844,-3.8459,-3.8463,-3.8458,-3.8463,-3.8243,-3.8436,-3.8434,-3.8433,-3.8432,-3.8432,-3.7899,-3.7954,-3.7997,-3.8062,-3.8095,-3.8137,-3.819,-3.8209,-3.8267,-3.8333,-3.833,-3.8405,-3.8446,-3.8522,-3.8549,-3.8607,-3.8583,-3.861,-3.8617,-3.8624,-3.8631,-3.8448,-3.8618,-3.8617,-3.8617,-3.8616,-3.8616,0,-3.8068,-3.8094,-3.8154,-3.8217,-3.8268,-3.8247,-3.8294,-3.8338,-3.8405,-3.8445,-3.8497,-3.8575,-3.8637,-3.8662,-3.8723,-3.8765,-3.8758,-3.8781,-3.8778,-3.8784,-3.8649,-3.8627,-3.8785,-3.8785,-3.8785,-3.8785,-3.8785,-3.8785,-3.8162,-3.8254,-3.8262,-3.837,-3.8395,-3.847,-3.8499,-3.8537,-3.8569,-3.8658,-3.871,-3.8726,-3.876,-3.8823,-3.8878,-3.8884,-3.8907,-3.8934,-3.8936,-3.881,-3.8793,-3.8777,-3.8757,-3.8939,-3.8939,-3.9066,-3.9068,-3.9068]}]]